San Luis Obispo, CA

6:25 AM PDT on July 21, 2017 (GMT -0700)
San Luis Obispo County-McChesney

Weather History for KSBP - August, 2013

Change the Weather History Date:

Thursday, August 8, 2013

  Actual Average Record
Temperature  
Mean Temperature 64 °F -  
Max Temperature 71 °F 82 °F 95 °F (1975)
Min Temperature 57 °F 52 °F 42 °F (1970)
Degree Days  
Heating Degree Days 2    
Growing Degree Days 14 (Base 50)    
Moisture  
Dew Point 54 °F    
Average Humidity 77    
Maximum Humidity 90    
Minimum Humidity 57    
Precipitation  
Precipitation 0.00 in - - ()
Sea Level Pressure  
Sea Level Pressure 30.00 in    
Wind  
Wind Speed 10 mph (NW)    
Max Wind Speed 21 mph    
Max Gust Speed -    
Visibility 10 miles    
Events      
Averages and records for this station are not official NWS values.
T = Trace of Precipitation, MM = Missing Value Source: NWS Daily Summary

Daily Weather History Graph

Daily Weather History Graph

Search for Another Location

Airport or City:

Trip Planner

Search our weather history database for the weather conditions in past years. The results will help you decide how hot, cold, wet, or windy it might be!

Date:

Astronomy

Aug. 08, 2013 Rise Set
Actual Time 6:17 AM PDT 7:58 PM PDT
Civil Twilight 5:49 AM PDT 8:25 PM PDT
Nautical Twilight 5:16 AM PDT 8:58 PM PDT
Astronomical Twilight 4:41 AM PDT 9:33 PM PDT
Moon 8:02 AM PDT (8/8) 8:47 PM PDT (8/8)
Length of Visible Light 14h 36m
Length of Day
13h 41m
Waxing Crescent, 3% of the Moon is Illuminated
Aug 8
Waxing Crescent
Aug 14
First Quarter
Aug 20
Full
Aug 28
Last Quarter
Sep 5
New

Hourly Weather History & Observations

Time (PDT) Temp. Dew Point Humidity Pressure Visibility Wind Dir Wind Speed Gust Speed Precip Events Conditions
12:43 AM 57.2 °F 53.6 °F 88% 30.05 in 10.0 mi NNW 9.2 mph - N/A   Overcast
12:56 AM 57.9 °F 54.0 °F 87% 30.05 in 10.0 mi NW 9.2 mph - N/A   Overcast
1:56 AM 57.9 °F 55.0 °F 90% 30.04 in 10.0 mi NNW 5.8 mph - N/A   Overcast
2:56 AM 57.0 °F 54.0 °F 89% 30.02 in 10.0 mi West 4.6 mph - N/A   Overcast
3:56 AM 57.0 °F 54.0 °F 89% 30.01 in 10.0 mi WNW 4.6 mph - N/A   Overcast
4:56 AM 57.0 °F 53.1 °F 87% 30.01 in 10.0 mi West 4.6 mph - N/A   Overcast
5:56 AM 57.0 °F 54.0 °F 89% 30.01 in 10.0 mi NW 5.8 mph - N/A   Overcast
6:56 AM 57.0 °F 53.1 °F 87% 30.02 in 10.0 mi NNW 5.8 mph - N/A   Overcast
7:56 AM 57.0 °F 54.0 °F 89% 30.02 in 10.0 mi WNW 6.9 mph - N/A   Overcast
8:56 AM 59.0 °F 54.0 °F 83% 30.03 in 10.0 mi NNW 6.9 mph - N/A   Overcast
9:25 AM 60.8 °F 53.6 °F 77% 30.03 in 10.0 mi NNW 9.2 mph - N/A   Mostly Cloudy
9:56 AM 63.0 °F 54.0 °F 72% 30.03 in 10.0 mi NW 6.9 mph - N/A   Scattered Clouds
10:56 AM 66.9 °F 54.0 °F 63% 30.03 in 10.0 mi NW 15.0 mph - N/A   Scattered Clouds
11:56 AM 68.0 °F 54.0 °F 61% 30.02 in 10.0 mi NW 15.0 mph - N/A   Clear
12:56 PM 70.0 °F 54.0 °F 57% 30.01 in 10.0 mi NW 18.4 mph - N/A   Clear
1:56 PM 70.0 °F 54.0 °F 57% 30.00 in 10.0 mi NW 20.7 mph - N/A   Clear
2:56 PM 69.1 °F 55.0 °F 61% 29.99 in 10.0 mi NW 18.4 mph - N/A   Clear
3:56 PM 69.1 °F 55.0 °F 61% 29.99 in 10.0 mi NW 18.4 mph - N/A   Clear
4:56 PM 66.9 °F 54.0 °F 63% 29.97 in 10.0 mi NW 16.1 mph - N/A   Clear
5:56 PM 64.0 °F 54.0 °F 70% 29.96 in 10.0 mi NW 17.3 mph - N/A   Clear
6:56 PM 62.1 °F 53.1 °F 72% 29.96 in 10.0 mi NW 15.0 mph - N/A   Partly Cloudy
7:56 PM 59.0 °F 53.1 °F 81% 29.97 in 10.0 mi NW 12.7 mph - N/A   Scattered Clouds
8:15 PM 59.0 °F 53.6 °F 82% 29.97 in 10.0 mi NW 12.7 mph - N/A   Mostly Cloudy
8:56 PM 59.0 °F 53.1 °F 81% 29.98 in 10.0 mi NW 10.4 mph - N/A   Overcast
9:56 PM 59.0 °F 53.1 °F 81% 29.98 in 10.0 mi NW 11.5 mph - N/A   Overcast
10:56 PM 59.0 °F 53.1 °F 81% 29.98 in 10.0 mi North - - N/A   Overcast
11:56 PM 59.0 °F 53.1 °F 81% 29.97 in 10.0 mi NW 8.1 mph - N/A   Overcast